Weather History for Lamar, CO

Change the Weather History Date:

Thursday, March 21, 2013

  Actual Average Record
Temperature  
Mean Temperature 42 °F 44 °F  
Max Temperature 60 °F 61 °F 86 °F (2011)
Min Temperature 24 °F 28 °F 5 °F (1989)
Degree Days  
Heating Degree Days 23 21  
Month to date heating degree days 463 507  
Since 1 July heating degree days 4562 4818  
Cooling Degree Days 0 0  
Month to date cooling degree days 0 0  
Year to date cooling degree days 0 0  
Moisture  
Dew Point 24 °F    
Average Humidity 55    
Maximum Humidity 82    
Minimum Humidity 27    
Precipitation  
Precipitation 0.00 in 0.03 in 1.07 in (1926)
Month to date precipitation 0.04 0.59  
Year to date precipitation 0.16 1.26  
Sea Level Pressure  
Sea Level Pressure 29.61 in    
Wind  
Wind Speed 9 mph (ENE)    
Max Wind Speed 21 mph    
Max Gust Speed 28 mph    
Visibility 10 miles    
Events      
T = Trace of Precipitation, MM = Missing Value Source: NWS Daily Summary

Daily Weather History Graph

Daily Weather History Graph

Search for Another Location

Airport:

Trip Planner

Search our weather history database for the weather conditions in past years. The results will help you decide how hot, cold, wet, or windy it might be!

Date:

Astronomy

Mar. 21, 2013 Rise Set
Actual Time 6:52 AM MDT 7:03 PM MDT
Civil Twilight 6:25 AM MDT 7:30 PM MDT
Nautical Twilight 5:55 AM MDT 8:01 PM MDT
Astronomical Twilight 5:24 AM MDT 8:32 PM MDT
Moon 1:40 PM MDT (3/21) 3:10 AM MDT (3/21)
Length of Visible Light 13h 04m
Length of Day
12h 11m
Waxing Gibbous, 69% of the Moon is Illuminated
Mar 21
Waxing Gibbous
Mar 27
Full
Apr 2
Last Quarter
Apr 10
New
Apr 18
First Quarter

Hourly Weather History & Observations

Time (MDT) Temp. Windchill Dew Point Humidity Pressure Visibility Wind Dir Wind Speed Gust Speed Precip Events Conditions
12:53 AM 36.0 °F 29.6 °F 24.1 °F 62% 29.63 in 10.0 mi WSW 8.1 mph - N/A   Clear
1:53 AM 33.1 °F 26.1 °F 19.9 °F 59% 29.63 in 10.0 mi WSW 8.1 mph - N/A   Clear
2:53 AM 34.0 °F 31.0 °F 18.0 °F 52% 29.62 in 10.0 mi WSW 3.5 mph - N/A   Clear
3:53 AM 30.9 °F 25.2 °F 17.1 °F 57% 29.61 in 10.0 mi WSW 5.8 mph - N/A   Clear
4:53 AM 27.0 °F 19.5 °F 15.1 °F 61% 29.61 in 10.0 mi WNW 6.9 mph - N/A   Clear
5:53 AM 27.0 °F - 15.1 °F 61% 29.63 in 10.0 mi Calm Calm - N/A   Clear
6:53 AM 27.0 °F - 16.0 °F 63% 29.64 in 10.0 mi Calm Calm - N/A   Clear
7:53 AM 26.1 °F - 16.0 °F 66% 29.65 in 10.0 mi Calm Calm - N/A   Clear
8:53 AM 35.1 °F 31.0 °F 23.0 °F 61% 29.61 in 10.0 mi ENE 4.6 mph - N/A   Clear
9:53 AM 41.0 °F 38.0 °F 24.1 °F 51% 29.59 in 10.0 mi ENE 4.6 mph - N/A   Clear
10:53 AM 46.9 °F - 25.0 °F 42% 29.57 in 10.0 mi East 8.1 mph - N/A   Clear
11:53 AM 48.9 °F - 25.0 °F 39% 29.54 in 10.0 mi East 9.2 mph - N/A   Mostly Cloudy
12:53 PM 53.1 °F - 26.1 °F 35% 29.51 in 10.0 mi East 11.5 mph - N/A   Mostly Cloudy
1:53 PM 55.0 °F - 26.1 °F 33% 29.53 in 10.0 mi NE 6.9 mph - N/A   Overcast
2:53 PM 59.0 °F - 27.0 °F 29% 29.48 in 10.0 mi East 13.8 mph 23.0 mph N/A   Clear
3:53 PM 60.1 °F - 27.0 °F 28% 29.48 in 10.0 mi ENE 19.6 mph 25.3 mph N/A   Clear
4:53 PM 57.0 °F - 27.0 °F 32% 29.50 in 10.0 mi East 19.6 mph 25.3 mph N/A   Partly Cloudy
5:53 PM 54.0 °F - 27.0 °F 35% 29.54 in 10.0 mi ESE 15.0 mph - N/A   Scattered Clouds
6:53 PM 51.1 °F - 28.0 °F 41% 29.55 in 10.0 mi East 12.7 mph - N/A   Clear
7:53 PM 48.0 °F - 27.0 °F 44% 29.66 in 10.0 mi NNE 12.7 mph - N/A   Partly Cloudy
8:53 PM 46.0 °F 39.6 °F 26.1 °F 46% 29.72 in 10.0 mi NNE 15.0 mph - N/A   Scattered Clouds
9:53 PM 43.0 °F 34.2 °F 32.0 °F 65% 29.76 in 10.0 mi NNE 20.7 mph 26.5 mph N/A   Overcast
10:53 PM 39.0 °F 30.6 °F 32.0 °F 76% 29.79 in 10.0 mi NE 15.0 mph 24.2 mph N/A   Overcast
11:53 PM 36.0 °F 31.1 °F 30.0 °F 79% 29.79 in 10.0 mi East 5.8 mph - N/A   Clear